Regional Weather Roundup
Issued by NWS

Home | Current Version | Previous Version | Graphics & Text | Print | Product List | Glossary On
Versions: 1 2 3 4 5 6 7 8 9 10 11 12 13 14 15 16 17 18 19 20 21 22 23 24 25 26 27 28 29 30 31 32 33 34 35 36 37 38 39 40 41 42 43 44 45 46 47 48 49 50
000
ASUS43 KOAX 311002
RWRNE

WEATHER ROUNDUP FOR NEBRASKA
NATIONAL WEATHER SERVICE OMAHA NE
500 AM CDT FRI OCT 31 2014

NOTES: SATELLITE DATA IS BEING USED TO AUGMENT CLOUD COVER ABOVE
       12000 FEET.
       "FAIR" INDICATES FEW OR NO CLOUDS BELOW 12,000 FEET WITH NO
       SIGNIFICANT WEATHER AND/OR OBSTRUCTIONS TO VISIBILITY.

  * THESE STATIONS DO NOT REPORT WEATHER SUCH AS RAIN...SNOW OR FOG.

NEZ001>004-019>022-054>056-311100-
NEBRASKA PANHANDLE

CITY           SKY/WX    TMP DP  RH WIND       PRES   REMARKS
SCOTTSBLUFF    PTCLDY    31  29  92 E9        30.42F WCI  23
ALLIANCE       PTCLDY    22  21  96 SE6       30.43F FOG     WCI  14
CHADRON        FOG       22  21  96 CALM      30.44F VSB 1/4
KIMBALL        CLEAR     31  29  94 SE9       30.39S WCI  23
SIDNEY         PTCLDY    25  23  92 SE7       30.43F WCI  17
$$

NEZ057>060-069>072-079>082-311100-
SOUTHWEST NEBRASKA

CITY           SKY/WX    TMP DP  RH WIND       PRES   REMARKS
NORTH PLATTE   CLOUDY    32  29  88 NE10      30.49S WCI  24
IMPERIAL       PTCLDY    27  23  85 N6        30.47F WCI  20
LEXINGTON      CLOUDY    33  29  84 NE15      30.50S WCI  23
MCCOOK         MOCLDY    30  28  92 N7        30.49S WCI  23
OGALLALA       MOCLDY    27  25  95 NE5       30.47F WCI  21
$$

NEZ005>010-023>029-035>040-094-311100-
NORTH CENTRAL NEBRASKA

CITY           SKY/WX    TMP DP  RH WIND       PRES   REMARKS
VALENTINE      CLOUDY    29  24  82 NE8       30.53S WCI  21
AINSWORTH      CLOUDY    28  22  80 N3        30.53S
BROKEN BOW     CLOUDY    33  26  75 NE12      30.50S WCI  24
O`NEILL        CLEAR     24  21  89 N6        30.55R WCI  17
ORD            CLOUDY    30  22  72 N10       30.52S WCI  21
THEDFORD       CLOUDY    31  28  90 NE8       30.51S WCI  24
$$

NEZ041-046>049-061>064-073>077-083>087-311100-
SOUTH CENTRAL NEBRASKA

CITY           SKY/WX    TMP DP  RH WIND       PRES   REMARKS
GRAND ISLAND   CLOUDY    35  25  66 NE10      30.52R WCI  27
AURORA         CLOUDY    32  23  68 N17       30.50R WCI  21
HASTINGS       CLOUDY    34  26  72 NE13      30.49R WCI  25
HEBRON         MOCLDY    35  25  68 NE16      30.48R WCI  25
HOLDREGE       MOCLDY    32  27  80 N18       30.49S WCI  21
KEARNEY *      CLOUDY    34  25  69 N14       30.51R WCI  24
YORK           CLEAR     30  23  74 N17       30.51R WCI  18
$$

NEZ011>018-030>034-042>045-311100-
NORTHEAST NEBRASKA

CITY           SKY/WX    TMP DP  RH WIND       PRES   REMARKS
NORFOLK        CLEAR     27  19  72 N12       30.52R WCI  17
ALBION         CLEAR     28  17  64 N6        30.53R WCI  21
BLAIR          CLEAR     31  22  67 N12       30.47R WCI  22
FREMONT        CLEAR     30  22  72 N9        30.50R WCI  22
TEKAMAH        CLEAR     30  21  69 N14       30.50R WCI  19
WAYNE          CLEAR     27  20  77 N10       30.52S WCI  17
$$

NEZ050>053-065>068-078-088>093-311100-
SOUTHEAST NEBRASKA

CITY           SKY/WX    TMP DP  RH WIND       PRES   REMARKS
LINCOLN        CLEAR     30  21  69 N16       30.49S WCI  19
OMAHA EPPLEY   PTCLDY    31  22  69 N12       30.48S WCI  22
BEATRICE       CLOUDY    32  25  76 N17       30.46R WCI  21
FALLS CITY     MOCLDY    34  24  67 N15G23    30.43R WCI  24
NEBRASKA CITY  PTCLDY    32  20  60 N12G20    30.44S WCI  23
PLATTSMOUTH    CLEAR     32  20  63 N12       30.46R WCI  23
$$

NEZ044-045-051>053-067-311100-
OMAHA AREA

CITY           SKY/WX    TMP DP  RH WIND       PRES   REMARKS
OMAHA EPPLEY   PTCLDY    31  22  69 N12       30.48S WCI  22
BLAIR          CLEAR     31  22  67 N12       30.47R WCI  22
FREMONT        CLEAR     30  22  72 N9        30.50R WCI  22
MILLARD        CLEAR     33  22  64 NW7       30.48R WCI  27
OFFUTT AFB     CLEAR     32  21  63 N10G18    30.47R WCI  24
PLATTSMOUTH    CLEAR     32  20  63 N12       30.46R WCI  23
WAHOO          FAIR      30  21  68 N12G18    30.48S WCI  20
$$



USA.gov is the U.S. government's official web portal to all federal, state and local government web resources and services.